Portada
METAR-TAF:

METAR-TAF

Aeroports :

Kalaleh, Iran

latitud: 37-22-60N, longitud: 55-27-07E, altitud: 130 m

Observació

L'informe es va fer fa 2 hores i 42 minuts, a les 21:00 UTC
Vent calma
Temperatura 7°C
Humitat 93%
Pressió 1011 hPa
Visibilitat 10 km o més
sense núvols per sota de 1500 mi sense presència de cumulonimbus.

METAR: OINE 162100Z 00000KT CAVOK 07/06 Q1011

Hora: 03:12 (23:42 UTC)


TAF: manca

Observacions i pronòstics meteorològics de més de 4000 aeroports (METAR i TAF).

Les estacions disponibles són els punts grocs i vermells al mapa.

Posi el ratolí al punt desitjat per veure el nom de l'estació.

Feu clic per veure les observacions i els pronòstics meteorològics.

Per canviar el mapa: feu clic els botons verds amb una creu de color negre per apropar; al botó verd amb un guió per allunyar la imatge; o en les fletxes verdes per a mapes adjacents.


METAR-TAF: